TimeCDT,TemperatureF,Dew PointF,Humidity,Sea Level PressureIn,VisibilityMPH,Wind Direction,Wind SpeedMPH,Gust SpeedMPH,PrecipitationIn,Events,Conditions,WindDirDegrees,DateUTC
12:13 AM,33.8,28.4,81,29.90,7.0,Calm,Calm,-,N/A,,Drizzle,0,2012-10-11 05:13:00
12:33 AM,33.8,28.4,81,29.90,7.0,WSW,3.5,-,N/A,,Drizzle,240,2012-10-11 05:33:00
12:53 AM,33.8,28.4,81,29.89,7.0,Calm,Calm,-,N/A,Rain,Rain,0,2012-10-11 05:53:00
1:13 AM,33.8,28.4,81,29.89,7.0,Calm,Calm,-,N/A,Rain,Rain,0,2012-10-11 06:13:00
1:33 AM,33.8,28.4,81,29.88,7.0,Calm,Calm,-,0.01,Rain,Light Rain,0,2012-10-11 06:33:00
1:53 AM,33.8,28.4,81,29.88,7.0,Calm,Calm,-,N/A,Rain,Light Rain,0,2012-10-11 06:53:00
2:13 AM,33.8,28.4,81,29.86,10.0,Calm,Calm,-,N/A,,Light Drizzle,0,2012-10-11 07:13:00
2:33 AM,33.8,30.2,87,29.86,10.0,Calm,Calm,-,N/A,,Light Drizzle,0,2012-10-11 07:33:00
2:53 AM,33.8,28.4,81,29.86,10.0,Calm,Calm,-,N/A,,Light Drizzle,0,2012-10-11 07:53:00
3:13 AM,33.8,28.4,81,29.86,10.0,Calm,Calm,-,N/A,,Overcast,0,2012-10-11 08:13:00
3:33 AM,33.8,28.4,81,29.86,10.0,Calm,Calm,-,N/A,,Overcast,0,2012-10-11 08:33:00
3:53 AM,33.8,28.4,81,29.85,10.0,Calm,Calm,-,N/A,,Overcast,0,2012-10-11 08:53:00
4:13 AM,33.8,30.2,87,29.86,10.0,Calm,Calm,-,N/A,,Overcast,0,2012-10-11 09:13:00
4:33 AM,33.8,30.2,87,29.86,10.0,Calm,Calm,-,N/A,,Overcast,0,2012-10-11 09:33:00
4:54 AM,33.8,28.4,81,29.87,10.0,Calm,Calm,-,N/A,,Mostly Cloudy,0,2012-10-11 09:54:00
5:33 AM,32.0,28.4,87,29.88,10.0,Calm,Calm,-,N/A,,Clear,0,2012-10-11 10:33:00
5:53 AM,32.0,28.4,87,29.88,10.0,NW,4.6,-,N/A,,Clear,310,2012-10-11 10:53:00
6:13 AM,32.0,28.4,87,29.89,10.0,NW,4.6,-,N/A,,Clear,310,2012-10-11 11:13:00
6:33 AM,32.0,28.4,87,29.90,10.0,NW,4.6,-,N/A,,Clear,310,2012-10-11 11:33:00
6:53 AM,32.0,26.6,80,29.90,10.0,NW,5.8,-,N/A,,Clear,310,2012-10-11 11:53:00
7:33 AM,30.2,26.6,86,29.91,10.0,NW,3.5,-,N/A,,Clear,310,2012-10-11 12:33:00
7:53 AM,30.2,26.6,86,29.92,10.0,NW,5.8,-,N/A,,Clear,320,2012-10-11 12:53:00
8:14 AM,32.0,28.4,87,29.93,10.0,WNW,5.8,-,N/A,,Clear,300,2012-10-11 13:14:00
8:33 AM,35.6,28.4,75,29.94,10.0,NW,5.8,-,N/A,,Clear,310,2012-10-11 13:33:00
8:53 AM,35.6,26.6,70,29.94,10.0,WNW,5.8,-,N/A,,Clear,290,2012-10-11 13:53:00
9:33 AM,35.6,26.6,70,29.96,10.0,NNW,8.1,-,N/A,,Clear,330,2012-10-11 14:33:00
9:53 AM,37.4,24.8,60,29.98,10.0,NW,12.7,20.7,N/A,,Clear,310,2012-10-11 14:53:00
10:14 AM,37.4,24.8,60,29.99,10.0,NW,8.1,18.4,N/A,,Clear,310,2012-10-11 15:14:00
10:33 AM,37.4,24.8,60,30.00,10.0,NW,10.4,19.6,N/A,,Clear,310,2012-10-11 15:33:00
10:53 AM,37.4,24.8,60,30.01,10.0,NW,8.1,20.7,N/A,,Clear,320,2012-10-11 15:53:00
11:13 AM,37.4,24.8,60,30.03,10.0,NNW,11.5,19.6,N/A,,Clear,330,2012-10-11 16:13:00
11:33 AM,39.2,24.8,56,30.03,10.0,WNW,9.2,16.1,N/A,,Clear,300,2012-10-11 16:33:00
11:53 AM,39.2,24.8,56,30.04,10.0,NW,11.5,18.4,N/A,,Clear,310,2012-10-11 16:53:00
12:13 PM,41.0,24.8,53,30.04,10.0,WNW,10.4,19.6,N/A,,Clear,300,2012-10-11 17:13:00
12:33 PM,41.0,24.8,53,30.05,10.0,NW,10.4,17.3,N/A,,Clear,310,2012-10-11 17:33:00
12:53 PM,42.8,24.8,49,30.05,10.0,WNW,10.4,18.4,N/A,,Clear,300,2012-10-11 17:53:00
1:13 PM,42.8,23.0,46,30.05,10.0,NW,11.5,19.6,N/A,,Scattered Clouds,310,2012-10-11 18:13:00
1:33 PM,41.0,23.0,49,30.06,10.0,NW,11.5,19.6,N/A,,Scattered Clouds,320,2012-10-11 18:33:00
1:53 PM,42.8,23.0,46,30.06,10.0,NW,8.1,18.4,N/A,,Clear,310,2012-10-11 18:53:00
2:13 PM,42.8,23.0,46,30.07,10.0,WNW,8.1,18.4,N/A,,Clear,290,2012-10-11 19:13:00
2:33 PM,42.8,21.2,42,30.08,10.0,NW,10.4,16.1,N/A,,Clear,310,2012-10-11 19:33:00
2:53 PM,39.2,24.8,56,30.10,4.0,NW,9.2,21.9,N/A,,Scattered Clouds,310,2012-10-11 19:53:00
3:13 PM,39.2,24.8,56,30.11,10.0,WNW,3.5,19.6,N/A,,Scattered Clouds,290,2012-10-11 20:13:00
3:33 PM,41.0,24.8,53,30.11,10.0,WNW,8.1,-,N/A,,Scattered Clouds,290,2012-10-11 20:33:00
3:53 PM,42.8,24.8,49,30.12,7.0,NNW,9.2,18.4,N/A,,Clear,340,2012-10-11 20:53:00
4:13 PM,39.2,21.2,49,30.12,10.0,WNW,5.8,17.3,N/A,,Clear,300,2012-10-11 21:13:00
4:33 PM,41.0,24.8,53,30.12,10.0,WNW,6.9,-,N/A,,Clear,300,2012-10-11 21:33:00
5:13 PM,41.0,23.0,49,30.15,10.0,NW,6.9,-,N/A,,Clear,310,2012-10-11 22:13:00
5:33 PM,39.2,23.0,52,30.16,10.0,WNW,4.6,-,N/A,,Scattered Clouds,290,2012-10-11 22:33:00
5:53 PM,37.4,23.0,56,30.16,7.0,NW,4.6,-,N/A,,Scattered Clouds,310,2012-10-11 22:53:00
6:33 PM,35.6,23.0,60,30.19,10.0,Calm,Calm,-,N/A,,Clear,0,2012-10-11 23:33:00
6:53 PM,33.8,21.2,60,30.20,10.0,NW,3.5,-,N/A,,Clear,310,2012-10-11 23:53:00
7:13 PM,33.8,23.0,65,30.21,10.0,WNW,5.8,-,N/A,,Clear,300,2012-10-12 00:13:00
7:33 PM,33.8,23.0,65,30.22,10.0,WNW,5.8,-,N/A,,Clear,300,2012-10-12 00:33:00
8:13 PM,32.0,24.8,75,30.23,10.0,NW,6.9,-,N/A,,Scattered Clouds,310,2012-10-12 01:13:00
8:33 PM,32.0,24.8,75,30.24,10.0,WNW,3.5,-,N/A,,Scattered Clouds,300,2012-10-12 01:33:00
8:53 PM,32.0,24.8,75,30.24,10.0,Calm,Calm,-,N/A,,Clear,0,2012-10-12 01:53:00
9:13 PM,30.2,24.8,80,30.24,10.0,Calm,Calm,-,N/A,,Clear,0,2012-10-12 02:13:00
10:13 PM,28.4,21.2,74,30.26,10.0,Calm,Calm,-,N/A,,Clear,0,2012-10-12 03:13:00
10:33 PM,28.4,23.0,80,30.26,10.0,Calm,Calm,-,N/A,,Clear,0,2012-10-12 03:33:00
11:13 PM,28.4,21.2,74,30.28,10.0,NW,3.5,-,N/A,,Clear,320,2012-10-12 04:13:00
11:33 PM,28.4,21.2,74,30.28,10.0,NW,4.6,-,N/A,,Clear,310,2012-10-12 04:33:00